TimeCDT,TemperatureF,Dew PointF,Humidity,Sea Level PressureIn,VisibilityMPH,Wind Direction,Wind SpeedMPH,Gust SpeedMPH,PrecipitationIn,Events,Conditions,WindDirDegrees,DateUTC
12:14 AM,48.2,32.0,54,29.87,10.0,Calm,Calm,-,N/A,,Unknown,0,2012-10-03 05:14:00
12:33 AM,46.4,32.0,57,29.87,10.0,Calm,Calm,-,N/A,,Unknown,0,2012-10-03 05:33:00
12:53 AM,46.4,30.2,53,29.87,10.0,Calm,Calm,-,N/A,,Scattered Clouds,0,2012-10-03 05:53:00
1:13 AM,44.6,30.2,57,29.87,10.0,Calm,Calm,-,N/A,,Scattered Clouds,0,2012-10-03 06:13:00
1:29 AM,44.6,30.2,57,29.87,10.0,Calm,Calm,-,N/A,,Unknown,0,2012-10-03 06:29:00
1:41 AM,-9999,-9999,N/A,-9999,-9999.0,North,-9999.0,-,N/A,,Unknown,0,2012-10-03 06:41:00
2:13 AM,46.4,32.0,57,29.87,10.0,Calm,Calm,-,N/A,,Unknown,0,2012-10-03 07:13:00
2:33 AM,44.6,30.2,57,29.88,10.0,Calm,Calm,-,N/A,,Unknown,0,2012-10-03 07:33:00
2:53 AM,44.6,30.2,57,29.87,10.0,Calm,Calm,-,N/A,,Scattered Clouds,0,2012-10-03 07:53:00
3:13 AM,44.6,32.0,61,29.87,10.0,Calm,Calm,-,N/A,,Scattered Clouds,0,2012-10-03 08:13:00
3:33 AM,44.6,30.2,57,29.87,10.0,Calm,Calm,-,N/A,,Unknown,0,2012-10-03 08:33:00
3:53 AM,42.8,30.2,61,29.87,10.0,Calm,Calm,-,N/A,,Clear,0,2012-10-03 08:53:00
4:13 AM,44.6,30.2,57,29.88,10.0,Calm,Calm,-,N/A,,Scattered Clouds,0,2012-10-03 09:13:00
4:33 AM,44.6,30.2,57,29.88,10.0,Calm,Calm,-,N/A,,Unknown,0,2012-10-03 09:33:00
4:53 AM,44.6,30.2,57,29.88,10.0,Calm,Calm,-,N/A,,Scattered Clouds,0,2012-10-03 09:53:00
5:13 AM,44.6,30.2,57,29.87,10.0,Calm,Calm,-,N/A,,Unknown,0,2012-10-03 10:13:00
5:53 AM,44.6,30.2,57,29.88,10.0,Calm,Calm,-,N/A,,Scattered Clouds,0,2012-10-03 10:53:00
6:13 AM,42.8,30.2,61,29.88,10.0,Calm,Calm,-,N/A,,Scattered Clouds,0,2012-10-03 11:13:00
6:33 AM,42.8,32.0,66,29.88,10.0,Calm,Calm,-,N/A,,Clear,0,2012-10-03 11:33:00
6:53 AM,44.6,33.8,66,29.88,10.0,Calm,Calm,-,N/A,,Clear,0,2012-10-03 11:53:00
7:13 AM,44.6,33.8,66,29.88,10.0,Calm,Calm,-,N/A,,Clear,0,2012-10-03 12:13:00
7:33 AM,42.8,33.8,70,29.89,10.0,Calm,Calm,-,N/A,,Scattered Clouds,0,2012-10-03 12:33:00
7:53 AM,46.4,35.6,66,29.89,10.0,SSE,3.5,-,N/A,,Unknown,150,2012-10-03 12:53:00
8:13 AM,48.2,37.4,66,29.90,10.0,Calm,Calm,-,N/A,,Unknown,0,2012-10-03 13:13:00
8:34 AM,53.6,39.2,58,29.90,10.0,Calm,Calm,-,N/A,,Unknown,0,2012-10-03 13:34:00
8:53 AM,53.6,39.2,58,29.89,10.0,SSE,3.5,-,N/A,,Unknown,150,2012-10-03 13:53:00
9:13 AM,57.2,41.0,55,29.89,10.0,Calm,Calm,-,N/A,,Unknown,0,2012-10-03 14:13:00
9:34 AM,57.2,39.2,51,29.89,10.0,Calm,Calm,-,N/A,,Unknown,0,2012-10-03 14:34:00
9:53 AM,62.6,41.0,45,29.88,10.0,Calm,Calm,-,N/A,,Unknown,0,2012-10-03 14:53:00
10:13 AM,66.2,39.2,37,29.89,10.0,Calm,Calm,-,N/A,,Unknown,0,2012-10-03 15:13:00
10:34 AM,68.0,41.0,37,29.89,10.0,Calm,Calm,-,N/A,,Unknown,0,2012-10-03 15:34:00
10:53 AM,69.8,39.2,33,29.88,10.0,Calm,Calm,-,N/A,,Clear,0,2012-10-03 15:53:00
11:13 AM,69.8,35.6,28,29.88,10.0,SSE,5.8,-,N/A,,Clear,150,2012-10-03 16:13:00
11:33 AM,71.6,35.6,27,29.87,10.0,SSE,5.8,-,N/A,,Clear,150,2012-10-03 16:33:00
11:53 AM,73.4,33.8,23,29.87,10.0,SSE,4.6,-,N/A,,Clear,160,2012-10-03 16:53:00
12:13 PM,75.2,33.8,22,29.87,10.0,SE,6.9,-,N/A,,Clear,140,2012-10-03 17:13:00
12:53 PM,73.4,33.8,23,29.86,10.0,SSE,8.1,-,N/A,,Clear,150,2012-10-03 17:53:00
1:13 PM,75.2,32.0,21,29.85,10.0,SSE,5.8,-,N/A,,Clear,150,2012-10-03 18:13:00
1:33 PM,75.2,28.4,18,29.84,10.0,SE,8.1,-,N/A,,Clear,140,2012-10-03 18:33:00
1:53 PM,73.4,26.6,18,29.83,10.0,SE,8.1,-,N/A,,Clear,140,2012-10-03 18:53:00
2:13 PM,75.2,28.4,18,29.83,10.0,SSE,3.5,-,N/A,,Clear,150,2012-10-03 19:13:00
2:33 PM,75.2,26.6,17,29.82,10.0,SE,10.4,16.1,N/A,,Clear,140,2012-10-03 19:33:00
2:53 PM,75.2,26.6,17,29.82,10.0,SSE,9.2,-,N/A,,Clear,160,2012-10-03 19:53:00
3:13 PM,77.0,26.6,16,29.82,10.0,SSE,6.9,17.3,N/A,,Clear,160,2012-10-03 20:13:00
3:33 PM,75.2,26.6,17,29.82,10.0,SSE,6.9,-,N/A,,Clear,150,2012-10-03 20:33:00
3:53 PM,77.0,28.4,17,29.82,10.0,SE,8.1,-,N/A,,Clear,140,2012-10-03 20:53:00
4:13 PM,75.2,26.6,17,29.81,10.0,SE,10.4,-,N/A,,Clear,140,2012-10-03 21:13:00
4:33 PM,77.0,26.6,16,29.81,10.0,SE,12.7,17.3,N/A,,Clear,140,2012-10-03 21:33:00
4:53 PM,75.2,28.4,18,29.82,10.0,SE,9.2,-,N/A,,Clear,140,2012-10-03 21:53:00
5:13 PM,77.0,28.4,17,29.82,10.0,SE,8.1,-,N/A,,Clear,140,2012-10-03 22:13:00
5:53 PM,73.4,32.0,22,29.83,10.0,SE,5.8,-,N/A,,Clear,140,2012-10-03 22:53:00
6:13 PM,71.6,33.8,25,29.82,10.0,SE,8.1,-,N/A,,Clear,130,2012-10-03 23:13:00
6:33 PM,71.6,33.8,25,29.81,10.0,SE,6.9,-,N/A,,Clear,130,2012-10-03 23:33:00
6:53 PM,69.8,35.6,28,29.82,10.0,SE,4.6,-,N/A,,Clear,140,2012-10-03 23:53:00
7:14 PM,68.0,33.8,28,29.83,10.0,Calm,Calm,-,N/A,,Scattered Clouds,0,2012-10-04 00:14:00
7:33 PM,62.6,32.0,32,29.83,10.0,ESE,4.6,-,N/A,,Scattered Clouds,120,2012-10-04 00:33:00
8:13 PM,60.8,33.8,36,29.83,10.0,ESE,3.5,-,N/A,,Unknown,120,2012-10-04 01:13:00
8:33 PM,60.8,35.6,39,29.83,10.0,ESE,4.6,-,N/A,,Unknown,120,2012-10-04 01:33:00
8:53 PM,59.0,35.6,42,29.83,10.0,SE,5.8,-,N/A,,Unknown,130,2012-10-04 01:53:00
9:13 PM,57.2,35.6,44,29.83,10.0,SE,5.8,-,N/A,,Unknown,130,2012-10-04 02:13:00
9:33 PM,57.2,35.6,44,29.83,10.0,SE,5.8,-,N/A,,Scattered Clouds,130,2012-10-04 02:33:00
9:53 PM,57.2,37.4,48,29.82,10.0,SE,6.9,-,N/A,,Unknown,130,2012-10-04 02:53:00
10:13 PM,60.8,39.2,45,29.82,10.0,SE,8.1,-,N/A,,Unknown,140,2012-10-04 03:13:00
10:33 PM,60.8,39.2,45,29.82,10.0,SE,8.1,-,N/A,,Scattered Clouds,140,2012-10-04 03:33:00
10:53 PM,60.8,39.2,45,29.81,10.0,SE,8.1,-,N/A,,Clear,140,2012-10-04 03:53:00
11:13 PM,60.8,37.4,42,29.80,10.0,SE,6.9,-,N/A,,Scattered Clouds,140,2012-10-04 04:13:00
11:33 PM,60.8,37.4,42,29.79,10.0,SE,9.2,-,N/A,,Scattered Clouds,130,2012-10-04 04:33:00
11:53 PM,60.8,37.4,42,29.78,10.0,SE,9.2,-,N/A,,Unknown,130,2012-10-04 04:53:00